Flag for Argentina Weather past 2 weeks in Salta, Salta, Argentina

Now
28 °F

Passing clouds.


Feels Like: 28 °F
Forecast: 27 / 56 °F
Wind: No wind

Location: Salta Aerodrome

Current Time: Jul 25, 2014 at 8:49:13 AM

Latest Report: Jul 25, 2014 at 8:00 AM


Visibility: N/A

Pressure: 30.15 "Hg

Humidity: 86%

Dew point: 25 °F

Location of SaltaLocation

Historic Weather in Salta — Graph

°F

Salta temperature yesterday

Maximum temperature yesterday: 57 °F (at 4:00 PM)
Minimum temperature yesterday: 34 °F (at 6:00 AM)
Average temperature yesterday: 44 °F

Past Weeks' High & Low Weather Summary

 TemperatureHumidityPressure
High86 °F (Jul 21, 4:00 PM)100% (Jul 12, 4:00 AM)30.51 "Hg (Jul 12, 4:00 AM)
Low27 °F (Jul 25, 7:00 AM)11% (Jul 21, 4:00 PM)29.74 "Hg (Jul 21, 4:00 PM)
Average53 °F71%30.12 "Hg
* Reported Jul 10 7:00 AM — Jul 25 7:00 AM, Salta, Weather by CustomWeather, © 2014

Note: Actual official high and low records may vary slightly from our data, if they occured in-between our weather recording intervals... More about our weather records

Advertising

Salta weather history for previous 24 hours

 ConditionsComfort  
Time TempWeatherWind HumidityBarometerVisibility
7:00 AM
Jul 25
27 °FClear.No wind86%30.15 "Hg10 mi
6:00 AM30 °FClear.No wind86%30.12 "Hg10 mi
5:00 AM28 °FClear.No wind93%30.12 "Hg10 mi
4:00 AM32 °FClear.2 mph87%30.15 "Hg10 mi
3:00 AM34 °FClear.5 mph81%30.18 "Hg10 mi
2:00 AM30 °FClear.No wind86%30.21 "Hg10 mi
1:00 AM32 °FClear.2 mph87%30.24 "Hg10 mi
11:00 PM
Jul 24
39 °FClear.3 mph70%30.24 "Hg10 mi
10:00 PM43 °FClear.5 mph57%30.27 "Hg10 mi
9:00 PM45 °FClear.6 mph49%30.27 "Hg10 mi
8:00 PM46 °FPassing clouds.6 mph43%30.24 "HgN/A
7:00 PM50 °FPassing clouds.7 mph37%30.24 "HgN/A
6:00 PM52 °FPassing clouds.9 mph35%30.24 "HgN/A
5:00 PM55 °FPassing clouds.6 mph31%30.24 "HgN/A
4:00 PM57 °FPassing clouds.3 mph31%30.24 "HgN/A
3:00 PM54 °FPassing clouds.3 mph35%30.30 "HgN/A
2:00 PM54 °FScattered clouds.3 mph38%30.33 "HgN/A
1:00 PM52 °FScattered clouds.10 mph41%30.39 "HgN/A
12:00 PM48 °FScattered clouds.6 mph46%30.42 "HgN/A
11:00 AM45 °FPassing clouds.3 mph71%30.45 "HgN/A
10:00 AM41 °FPassing clouds.3 mph81%30.45 "HgN/A
9:00 AM36 °FSunny.No wind93%30.42 "Hg10 mi
8:00 AM36 °FScattered clouds.No wind93%30.42 "HgN/A
Weather by CustomWeather, © 2014

See weather overviewHow to use our weather pages